User: anonymous   Login
Location: Newark
(45.8667°N, 9.7333°E)
Time: 01:49:07
(UTC+00:00)
Language:

SR - Orbit

View from above orbital plane
View from above orbital plane
View from above satellite
View from above satellite

Ground track
Ground track

The orbit data is extracted from the following two-line orbital elements,

1    46U 60007B   20019.23019814 -.00000030 +00000-0 +17293-4 0  9993
2    46 066.6908 092.4182 0216845 244.0698 113.7922 14.49269702117347
Epoch (UTC): 19 January 2020 05:31:29
Eccentricity: 0.0216845
inclination: 66.6908°
perigee height: 574 km
apogee height: 882 km
right ascension of ascending node: 92.4182°
argument of perigee: 244.0698°
revolutions per day: 14.49269702
mean anomaly at epoch: 113.7922°
orbit number at epoch: 11734

The dashed part of the orbit path shows where the satellite is in the earth's shadow,  

DLR